$Date,$Time,DM0201B,DM0203B,DM0205B,DM0207B,DM0209B
12/12/98,00:00:01,65,25,-10,642,949
12/12/98,00:05:01,53,355,-10,651,949
12/12/98,00:10:01,64,348,-10,675,949
12/12/98,00:15:01,74,12,-11,506,949
12/12/98,00:20:01,46,11,-10,405,949
12/12/98,00:25:01,46,18,-10,437,949
12/12/98,00:30:01,40,1,-10,568,949
12/12/98,00:35:01,43,17,-10,687,949
12/12/98,00:40:01,53,22,-10,733,949
12/12/98,00:45:01,72,14,-10,728,949
12/12/98,00:50:01,49,7,-10,716,949
12/12/98,00:55:01,86,11,-10,708,949
12/12/98,01:00:01,54,4,-10,603,949
12/12/98,01:05:01,63,4,-10,633,949
12/12/98,01:10:01,63,12,-10,643,949
12/12/98,01:15:01,70,12,-10,618,949
12/12/98,01:20:01,62,11,-10,606,949
12/12/98,01:25:01,81,14,-10,602,949
12/12/98,01:30:01,74,18,-10,602,949
12/12/98,01:35:01,74,1,-10,602,949
12/12/98,01:40:01,57,18,-10,598,949
12/12/98,01:45:01,55,4,-10,598,949
12/12/98,01:50:01,63,13,-10,597,949
12/12/98,01:55:01,71,32,-10,593,949
12/12/98,02:00:01,65,22,-10,593,949
12/12/98,02:05:01,70,15,-10,593,949
12/12/98,02:10:01,61,19,-10,593,949
12/12/98,02:15:01,90,22,-10,591,949
12/12/98,02:20:01,94,16,-9,591,949
12/12/98,02:25:01,80,26,-8,591,949
12/12/98,02:30:01,72,8,-8,589,949
12/12/98,02:35:01,68,9,-7,589,949
12/12/98,02:40:01,80,6,-7,587,949
12/12/98,02:45:01,71,4,-7,588,949
12/12/98,02:50:01,75,19,-6,586,949
12/12/98,02:55:01,66,13,-6,582,949
12/12/98,03:00:01,69,1,-6,582,949
12/12/98,03:05:01,68,6,-6,579,949
12/12/98,03:10:01,89,17,-6,577,949
12/12/98,03:15:01,62,7,-6,573,949
12/12/98,03:20:01,63,21,-5,571,949
12/12/98,03:25:01,70,12,-5,569,949
12/12/98,03:30:01,54,9,-5,567,949
12/12/98,03:35:01,68,8,-5,565,949
12/12/98,03:40:01,73,18,-5,561,949
12/12/98,03:45:01,76,7,-5,561,949
12/12/98,03:50:01,78,15,-5,559,949
12/12/98,03:55:01,95,20,-6,559,949
12/12/98,04:00:01,72,10,-5,556,949
12/12/98,04:05:01,93,15,-5,552,949
12/12/98,04:10:01,68,10,-4,550,949
12/12/98,04:15:01,72,18,-4,546,949
12/12/98,04:20:01,76,9,-5,544,949
12/12/98,04:25:01,75,19,-4,540,949
12/12/98,04:30:01,76,21,-4,538,949
12/12/98,04:35:01,78,8,-4,534,949
12/12/98,04:40:01,76,20,-4,530,949
12/12/98,04:45:01,63,18,-3,528,949
12/12/98,04:50:01,57,18,-4,526,949
12/12/98,04:55:01,98,18,-5,524,949
12/12/98,05:00:01,70,17,-4,522,949
12/12/98,05:05:01,69,10,-4,520,949
12/12/98,05:10:01,55,15,-5,516,949
12/12/98,05:15:01,86,34,-4,512,949
12/12/98,05:20:01,93,24,-3,508,949
12/12/98,05:25:01,91,11,-3,506,949
12/12/98,05:30:01,86,21,-3,502,949
12/12/98,05:35:01,99,8,-4,498,949
12/12/98,05:40:01,84,12,-4,496,949
12/12/98,05:45:01,83,10,-5,490,949
12/12/98,05:50:01,67,19,-3,486,949
12/12/98,05:55:01,69,17,-4,482,949
12/12/98,06:00:01,74,25,-4,477,949
12/12/98,06:05:01,77,11,-4,475,949
12/12/98,06:10:01,78,12,-4,470,949
12/12/98,06:15:01,92,12,-4,466,949
12/12/98,06:20:01,77,11,-4,462,949
12/12/98,06:25:01,82,21,-4,458,949
12/12/98,06:30:01,93,19,-3,454,949
12/12/98,06:35:01,74,14,-3,448,949
12/12/98,06:40:01,66,15,-4,444,949
12/12/98,06:45:01,65,15,-3,440,949
12/12/98,06:50:01,74,6,-4,436,949
12/12/98,06:55:01,65,16,-4,431,949
12/12/98,07:00:01,70,16,-4,425,949
12/12/98,07:05:01,64,16,-3,421,949
12/12/98,07:10:01,63,16,-3,417,949
12/12/98,07:15:01,72,17,-2,413,949
12/12/98,07:20:01,65,16,-1,407,949
12/12/98,07:25:01,63,24,-2,403,949
12/12/98,07:30:01,63,7,-3,397,949
12/12/98,07:35:01,55,16,-3,393,949
12/12/98,07:40:01,67,28,-3,389,949
12/12/98,07:45:01,54,24,-3,383,949
12/12/98,07:50:01,66,22,-3,379,949
12/12/98,07:55:01,68,9,-5,373,951
12/12/98,08:00:01,69,8,-5,367,951
12/12/98,08:05:01,56,8,-5,363,951
12/12/98,08:10:01,66,12,-6,357,951
12/12/98,08:15:01,53,12,-6,353,951
12/12/98,08:20:01,47,12,-5,347,951
12/12/98,08:25:01,47,23,-4,343,951
12/12/98,08:30:01,47,11,-4,339,951
12/12/98,08:35:01,57,11,-5,333,951
12/12/98,08:40:01,56,9,-4,327,951
12/12/98,08:45:01,60,6,-4,323,951
12/12/98,08:50:01,48,16,-4,317,951
12/12/98,08:55:01,52,16,-3,313,951
12/12/98,09:00:01,54,16,-4,314,951
12/12/98,09:05:01,39,16,-4,308,951
12/12/98,09:10:01,61,13,-5,309,951
12/12/98,09:15:01,57,13,-4,306,951
12/12/98,09:20:01,46,3,-5,300,951
12/12/98,09:25:01,48,14,-6,112,951
12/12/98,09:30:01,37,14,-7,90,951
12/12/98,09:35:01,34,14,-7,99,951
12/12/98,09:40:01,36,14,-6,50,951
12/12/98,09:45:01,50,14,-5,48,951
12/12/98,09:50:01,50,13,-5,48,951
12/12/98,09:55:01,50,13,-6,98,951
12/12/98,10:00:01,39,13,-6,251,951
12/12/98,10:05:01,49,13,-7,251,951
12/12/98,10:10:01,38,11,-6,249,951
12/12/98,10:15:01,30,11,-6,245,951
12/12/98,10:20:01,30,11,-6,241,951
12/12/98,10:25:01,40,11,-6,237,951
12/12/98,10:30:01,40,11,-7,235,951
12/12/98,10:35:01,40,11,-7,233,951
12/12/98,10:40:01,26,11,-7,229,951
12/12/98,10:45:01,26,11,-7,227,951
12/12/98,10:50:01,37,11,-7,224,951
12/12/98,10:55:01,37,11,-7,220,951
12/12/98,11:00:01,48,11,-7,218,951
12/12/98,11:05:01,33,11,-8,214,951
12/12/98,11:10:01,47,11,-8,212,951
12/12/98,11:15:01,47,11,-8,225,951
12/12/98,11:20:01,47,11,-9,102,951
12/12/98,11:25:01,35,11,-10,84,951
12/12/98,11:30:01,25,11,-10,70,951
12/12/98,11:35:01,25,1,-10,84,951
12/12/98,11:40:01,25,356,-10,143,951
12/12/98,11:45:01,26,347,-10,92,951
12/12/98,11:50:01,26,347,-11,94,951
12/12/98,11:55:01,36,337,-10,117,951
12/12/98,12:00:01,36,338,-10,64,951
12/12/98,12:05:01,36,340,-11,78,951
12/12/98,12:10:01,35,345,-10,185,951
12/12/98,12:15:01,25,345,-10,183,951
12/12/98,12:20:01,25,345,-11,183,951
12/12/98,12:25:01,41,337,-11,181,951
12/12/98,12:30:01,31,337,-11,181,951
12/12/98,12:35:01,31,347,-11,179,951
12/12/98,12:40:01,31,347,-11,177,951
12/12/98,12:45:01,47,347,-12,177,951
12/12/98,12:50:01,57,359,-12,175,951
12/12/98,12:55:01,45,359,-12,175,951
12/12/98,13:00:01,55,357,-12,175,951
12/12/98,13:05:01,45,357,-12,173,951
12/12/98,13:10:01,45,357,-12,162,951
12/12/98,13:15:01,45,357,-12,176,951
12/12/98,13:20:01,35,357,-12,176,951
12/12/98,13:25:01,35,357,-12,176,951
12/12/98,13:30:01,45,347,-12,176,951
12/12/98,13:35:01,45,347,-12,178,951
12/12/98,13:40:01,59,320,-12,178,951
12/12/98,13:45:01,47,342,-12,180,951
12/12/98,13:50:01,37,342,-12,182,951
12/12/98,13:55:01,37,341,-12,182,951
12/12/98,14:00:01,38,341,-12,184,951
12/12/98,14:05:01,48,329,-12,184,951
12/12/98,14:10:01,48,339,-12,188,951
12/12/98,14:15:01,48,339,-12,190,951
12/12/98,14:20:01,48,326,-12,190,951
12/12/98,14:25:01,51,329,-12,192,951
12/12/98,14:30:01,51,329,-12,194,951
12/12/98,14:35:01,59,317,-12,198,951
12/12/98,14:40:01,59,314,-12,200,951
12/12/98,14:45:01,49,334,-12,202,951
12/12/98,14:50:01,50,321,-12,204,951
12/12/98,14:55:01,59,328,-12,208,951
12/12/98,15:00:01,46,331,-12,210,951
12/12/98,15:05:01,46,342,-12,213,951
12/12/98,15:10:01,46,342,-12,220,951
12/12/98,15:15:01,45,342,-13,222,951
12/12/98,15:20:01,35,342,-13,224,951
12/12/98,15:25:01,35,353,-13,226,951
12/12/98,15:30:01,43,346,-13,230,951
12/12/98,15:35:01,52,346,-13,234,951
12/12/98,15:40:01,42,348,-13,238,951
12/12/98,15:45:01,52,347,-13,242,951
12/12/98,15:50:01,52,349,-13,246,951
12/12/98,15:55:01,42,349,-13,250,951
12/12/98,16:00:01,49,349,-13,252,951
12/12/98,16:05:01,49,359,-13,256,951
12/12/98,16:10:01,36,1,-13,260,951
12/12/98,16:15:01,36,13,-13,264,951
12/12/98,16:20:01,36,1,-13,273,951
12/12/98,16:25:01,46,1,-12,283,951
12/12/98,16:30:01,47,359,-12,237,951
12/12/98,16:35:01,45,2,-12,301,951
12/12/98,16:40:01,45,2,-12,305,951
12/12/98,16:45:01,54,12,-12,94,951
12/12/98,16:50:01,39,12,-12,94,951
12/12/98,16:55:01,50,5,-12,101,951
12/12/98,17:00:01,53,359,-12,122,951
12/12/98,17:05:01,31,353,-12,141,951
12/12/98,17:10:01,21,344,-12,150,951
12/12/98,17:15:01,25,313,-12,141,951
12/12/98,17:20:01,25,332,-12,157,951
12/12/98,17:25:01,39,312,-12,316,951
12/12/98,17:30:01,22,302,-11,257,951
12/12/98,17:35:01,16,327,-11,202,951
12/12/98,17:40:01,24,334,-11,174,951
12/12/98,17:45:01,35,333,-11,178,951
12/12/98,17:50:01,24,333,-11,197,951
12/12/98,17:55:01,37,344,-12,225,951
12/12/98,18:00:01,21,359,-12,309,951
12/12/98,18:05:01,21,1,-12,222,951
12/12/98,18:10:01,26,351,-12,201,951
12/12/98,18:15:01,38,6,-12,190,951
12/12/98,18:20:01,45,4,-12,200,951
12/12/98,18:25:01,45,5,-12,206,951
12/12/98,18:30:01,57,352,-12,214,951
12/12/98,18:35:01,45,16,-11,216,951
12/12/98,18:40:01,68,9,-11,359,951
12/12/98,18:45:01,48,9,-11,354,951
12/12/98,18:50:01,48,9,-11,298,951
12/12/98,18:55:01,40,7,-11,327,951
12/12/98,19:00:01,45,12,-11,254,951
12/12/98,19:05:01,12,16,-11,244,951
12/12/98,19:10:01,20,19,-10,211,951
12/12/98,19:15:01,11,7,-10,249,951
12/12/98,19:20:01,39,5,-10,228,951
12/12/98,19:25:01,30,15,-10,243,951
12/12/98,19:30:01,38,27,-10,316,951
12/12/98,19:35:01,28,21,-10,239,951
12/12/98,19:40:01,40,21,-10,409,951
12/12/98,19:45:01,36,22,-10,445,951
12/12/98,19:50:01,39,16,-10,342,951
12/12/98,19:55:01,41,12,-10,261,951
12/12/98,20:00:01,50,6,-10,326,951
12/12/98,20:05:01,50,4,-10,276,951
12/12/98,20:10:01,66,6,-10,410,951
12/12/98,20:15:01,55,1,-11,297,951
12/12/98,20:20:01,60,7,-11,379,951
12/12/98,20:25:01,49,10,-11,428,951
12/12/98,20:30:01,46,15,-11,432,951
12/12/98,20:35:01,23,12,-11,432,951
12/12/98,20:40:01,36,7,-11,432,953
12/12/98,20:45:01,6,23,-11,435,953
12/12/98,20:50:01,32,31,-11,437,953
12/12/98,20:55:01,38,25,-11,439,953
12/12/98,21:00:01,24,34,-11,446,953
12/12/98,21:05:01,28,20,-11,450,953
12/12/98,21:10:01,22,30,-11,454,953
12/12/98,21:15:01,26,24,-11,456,953
12/12/98,21:20:01,20,48,-11,475,953
12/12/98,21:25:01,19,10,-11,493,953
12/12/98,21:30:01,34,2,-11,537,953
12/12/98,21:35:01,58,3,-10,537,953
12/12/98,21:40:01,50,15,-10,508,953
12/12/98,21:45:01,44,2,-11,511,953
12/12/98,21:50:01,67,12,-10,560,953
12/12/98,21:55:01,50,12,-10,359,953
12/12/98,22:00:01,37,12,-11,495,953
12/12/98,22:05:01,34,5,-10,509,953
12/12/98,22:10:01,54,343,-11,524,953
12/12/98,22:15:01,50,11,-11,254,953
12/12/98,22:20:01,53,20,-11,261,953
12/12/98,22:25:01,48,12,-10,396,953
12/12/98,22:30:01,23,20,-10,322,953
12/12/98,22:35:01,5,3,-10,269,953
12/12/98,22:40:01,53,11,-10,299,953
12/12/98,22:45:01,47,15,-10,354,953
12/12/98,22:50:01,34,349,-10,377,953
12/12/98,22:55:01,50,4,-10,349,953
12/12/98,23:00:01,40,17,-9,315,953
12/12/98,23:05:01,30,352,-9,299,953
12/12/98,23:10:01,56,9,-9,285,953
12/12/98,23:15:01,46,16,-9,298,953
12/12/98,23:20:01,51,19,-9,318,953
12/12/98,23:25:01,58,7,-9,308,953
12/12/98,23:30:01,30,18,-9,306,953
12/12/98,23:35:01,51,14,-9,276,953
12/12/98,23:40:01,40,15,-9,280,953
12/12/98,23:45:01,40,17,-9,233,953
12/12/98,23:50:01,46,17,-9,204,953
12/12/98,23:55:01,40,5,-9,172,953
12/13/98,00:00:01,19,19,-9,152,953
